CZ-6A DEB, 56670

Orbit data source: Space-Track

CZ-6A DEB, 56670 is space debris in SSO originally from a launch on Fri, 11 Nov 2022 UTC launched from the Taiyaun Space Center, China (TSC). Debris objects in space refer to the collection of defunct objects orbiting the Earth. Examples of debris include non-operational satellites, rocket bodies, and fragments generated from explosions, collisions, or faulty payload assembly.

Loading next visibility...
Identifier
56670, 2022-151AGW
Orbit
SSO
Country
Flag of CNCN / PRC
Related business
Manufacturer
SAST
Mission
Spacecraft
Bus & Motor
Unknown
Mass
Unknown
Launch date (UTC)
2022-11-11 (4 years ago)
Launch vehicle
Unknown
Launch site
Taiyaun Space Center, China (TSC)
Object type
Payload
Rocket body
Debris
Shape & HBR
Unknown shape, 0.1 m
Radar Cross Section
Medium (>0.1 m² and <1 m²)

Expand to show TLE details & history
Last TLE update: 4 days ago

TLE from 4 days ago
0 CZ-6A DEB
1 56670U 22151AGW 26234.71791865  .00001227  00000-0  62934-3 0  9995
2 56670  98.8098 236.0947 0045597  91.8737 268.7660 14.16694680171991
Epoch: 2026-08-22T17:13Z
TLE epoch observation values (Epoch: 2026-08-22T17:13:48.171Z)
Latitude
-0.00005°
Longitude
6.61968°
Altitude
840.318 km
Speed
7.432 km/s
True Right ascension
15h 44m 22s
True Declination
0° 00' 00"
Sunlit
Object was in daylight at epoch
Visualization orbit readout
Latitude
Unknown
Longitude
Unknown
Altitude
Unknown
Speed
Unknown
Apparent Right ascension
Unknown
Apparent Declination
Unknown
Sunlit
N/A
Visualization observer readout
Local Sidereal Time
06:22:09
Azimuth
Unknown
Elevation
Unknown
Doppler factor
Unknown
Orbital elements
Apogee altitude
866.604 km
Perigee altitude
800.837 km
Semi-major axis
7,211.858 km
Eccentricity
0.00456
Inclination
98.8098°
RAAN
236.0947°
Arg. of periapsis
91.8737°
True anomaly
268.24369°
Mean anomaly
268.766°
Eccentric anomaly
268.50484°
Mean motion
3.54383 °/min
Orbital period
101.59 mins
BSTAR
0.00062934
Loading maneuver chart data...
Computing Atmospheric mass density...
Loading historical data...
Loading historical data...
Loading historical data...
Loading historical data...
Loading historical data...
Loading historical data...
Loading historical data...

Documentation

Showing up to 5 results
|